#datetime,building,power
2022-06-25T00:00:00,mcc,71.08
2022-06-25T00:01:00,mcc,62.28
2022-06-25T00:02:00,mcc,62.07
2022-06-25T00:03:00,mcc,61.77
2022-06-25T00:04:00,mcc,60.67
2022-06-25T00:05:00,mcc,61.69
2022-06-25T00:06:00,mcc,61.48
2022-06-25T00:07:00,mcc,62.37
2022-06-25T00:08:00,mcc,61.05
2022-06-25T00:09:00,mcc,59.17
2022-06-25T00:10:00,mcc,60.36
2022-06-25T00:11:00,mcc,61.83
2022-06-25T00:12:00,mcc,59.12
2022-06-25T00:13:00,mcc,58.24
2022-06-25T00:14:00,mcc,54.91
2022-06-25T00:15:00,mcc,52.36
2022-06-25T00:16:00,mcc,49.71
2022-06-25T00:17:00,mcc,50.02
2022-06-25T00:18:00,mcc,51.11
2022-06-25T00:19:00,mcc,57.83
2022-06-25T00:20:00,mcc,49.21
2022-06-25T00:21:00,mcc,50.02
2022-06-25T00:22:00,mcc,49.64
2022-06-25T00:23:00,mcc,48.90
2022-06-25T00:24:00,mcc,50.32
2022-06-25T00:25:00,mcc,50.48
2022-06-25T00:26:00,mcc,49.35
2022-06-25T00:27:00,mcc,49.48
2022-06-25T00:28:00,mcc,49.55
2022-06-25T00:29:00,mcc,48.33
2022-06-25T00:30:00,mcc,48.96
2022-06-25T00:31:00,mcc,48.93
2022-06-25T00:32:00,mcc,50.85
2022-06-25T00:33:00,mcc,51.66
2022-06-25T00:34:00,mcc,52.50
2022-06-25T00:35:00,mcc,50.68
2022-06-25T00:36:00,mcc,51.31
2022-06-25T00:37:00,mcc,52.85
2022-06-25T00:38:00,mcc,53.22
2022-06-25T00:39:00,mcc,52.84
2022-06-25T00:40:00,mcc,51.59
2022-06-25T00:41:00,mcc,50.94
2022-06-25T00:42:00,mcc,49.52
2022-06-25T00:43:00,mcc,48.68
2022-06-25T00:44:00,mcc,50.73
2022-06-25T00:45:00,mcc,51.18
2022-06-25T00:46:00,mcc,53.27
2022-06-25T00:47:00,mcc,51.64
2022-06-25T00:48:00,mcc,49.98
2022-06-25T00:49:00,mcc,50.29
2022-06-25T00:50:00,mcc,52.87
2022-06-25T00:51:00,mcc,50.66
2022-06-25T00:52:00,mcc,51.14
2022-06-25T00:53:00,mcc,49.31
2022-06-25T00:54:00,mcc,50.07
2022-06-25T00:55:00,mcc,50.77
2022-06-25T00:56:00,mcc,48.34
2022-06-25T00:57:00,mcc,47.21
2022-06-25T00:58:00,mcc,48.94
2022-06-25T00:59:00,mcc,48.62
2022-06-25T01:00:00,mcc,47.32
2022-06-25T01:01:00,mcc,46.90
2022-06-25T01:02:00,mcc,46.19
2022-06-25T01:03:00,mcc,44.01
2022-06-25T01:04:00,mcc,44.69
2022-06-25T01:05:00,mcc,44.70
2022-06-25T01:06:00,mcc,45.24
2022-06-25T01:07:00,mcc,46.34
2022-06-25T01:08:00,mcc,47.49
2022-06-25T01:09:00,mcc,47.65
2022-06-25T01:10:00,mcc,46.87
2022-06-25T01:11:00,mcc,47.02
2022-06-25T01:12:00,mcc,47.67
2022-06-25T01:13:00,mcc,48.61
2022-06-25T01:14:00,mcc,50.96
2022-06-25T01:15:00,mcc,50.82
2022-06-25T01:16:00,mcc,57.28
2022-06-25T01:17:00,mcc,49.12
2022-06-25T01:18:00,mcc,60.75
2022-06-25T01:19:00,mcc,58.82
2022-06-25T01:20:00,mcc,47.04
2022-06-25T01:21:00,mcc,47.04
2022-06-25T01:22:00,mcc,46.19
2022-06-25T01:23:00,mcc,45.33
2022-06-25T01:24:00,mcc,47.15
2022-06-25T01:25:00,mcc,47.53
2022-06-25T01:26:00,mcc,46.52
2022-06-25T01:27:00,mcc,47.02
2022-06-25T01:28:00,mcc,47.76
2022-06-25T01:29:00,mcc,47.21
2022-06-25T01:30:00,mcc,45.49
2022-06-25T01:31:00,mcc,45.30
2022-06-25T01:32:00,mcc,45.05
2022-06-25T01:33:00,mcc,45.83
2022-06-25T01:34:00,mcc,47.24
2022-06-25T01:35:00,mcc,54.80
2022-06-25T01:36:00,mcc,47.93
2022-06-25T01:37:00,mcc,46.09
2022-06-25T01:38:00,mcc,45.68
2022-06-25T01:39:00,mcc,45.79
2022-06-25T01:40:00,mcc,45.45
2022-06-25T01:41:00,mcc,44.52
2022-06-25T01:42:00,mcc,44.88
2022-06-25T01:43:00,mcc,45.42
2022-06-25T01:44:00,mcc,47.92
2022-06-25T01:45:00,mcc,47.57
2022-06-25T01:46:00,mcc,47.23
2022-06-25T01:47:00,mcc,47.05
2022-06-25T01:48:00,mcc,50.19
2022-06-25T01:49:00,mcc,48.99
2022-06-25T01:50:00,mcc,49.28
2022-06-25T01:51:00,mcc,48.74
2022-06-25T01:52:00,mcc,47.30
2022-06-25T01:53:00,mcc,48.61
2022-06-25T01:54:00,mcc,56.52
2022-06-25T01:55:00,mcc,47.25
2022-06-25T01:56:00,mcc,46.37
2022-06-25T01:57:00,mcc,47.13
2022-06-25T01:58:00,mcc,46.57
2022-06-25T01:59:00,mcc,46.17
2022-06-25T02:00:00,mcc,46.33
2022-06-25T02:01:00,mcc,46.02
2022-06-25T02:02:00,mcc,45.98
2022-06-25T02:03:00,mcc,46.57
2022-06-25T02:04:00,mcc,44.62
2022-06-25T02:05:00,mcc,42.52
2022-06-25T02:06:00,mcc,42.53
2022-06-25T02:07:00,mcc,43.48
2022-06-25T02:08:00,mcc,42.90
2022-06-25T02:09:00,mcc,43.48
2022-06-25T02:10:00,mcc,42.83
2022-06-25T02:11:00,mcc,42.56
2022-06-25T02:12:00,mcc,42.54
2022-06-25T02:13:00,mcc,53.88
2022-06-25T02:14:00,mcc,45.34
2022-06-25T02:15:00,mcc,45.80
2022-06-25T02:16:00,mcc,45.12
2022-06-25T02:17:00,mcc,45.02
2022-06-25T02:18:00,mcc,43.56
2022-06-25T02:19:00,mcc,44.57
2022-06-25T02:20:00,mcc,44.69
2022-06-25T02:21:00,mcc,46.92
2022-06-25T02:22:00,mcc,44.26
2022-06-25T02:23:00,mcc,45.66
2022-06-25T02:24:00,mcc,46.02
2022-06-25T02:25:00,mcc,45.44
2022-06-25T02:26:00,mcc,45.24
2022-06-25T02:27:00,mcc,46.04
2022-06-25T02:28:00,mcc,44.73
2022-06-25T02:29:00,mcc,42.60
2022-06-25T02:30:00,mcc,42.64
2022-06-25T02:31:00,mcc,43.32
2022-06-25T02:32:00,mcc,43.72
2022-06-25T02:33:00,mcc,42.97
2022-06-25T02:34:00,mcc,43.49
2022-06-25T02:35:00,mcc,43.87
2022-06-25T02:36:00,mcc,44.77
2022-06-25T02:37:00,mcc,47.20
2022-06-25T02:38:00,mcc,45.66
2022-06-25T02:39:00,mcc,47.66
2022-06-25T02:40:00,mcc,45.84
2022-06-25T02:41:00,mcc,44.66
2022-06-25T02:42:00,mcc,56.84
2022-06-25T02:43:00,mcc,45.89
2022-06-25T02:44:00,mcc,46.59
2022-06-25T02:45:00,mcc,47.08
2022-06-25T02:46:00,mcc,47.91
2022-06-25T02:47:00,mcc,47.76
2022-06-25T02:48:00,mcc,46.07
2022-06-25T02:49:00,mcc,47.39
2022-06-25T02:50:00,mcc,46.38
2022-06-25T02:51:00,mcc,45.92
2022-06-25T02:52:00,mcc,51.63
2022-06-25T02:53:00,mcc,43.41
2022-06-25T02:54:00,mcc,43.95
2022-06-25T02:55:00,mcc,43.34
2022-06-25T02:56:00,mcc,45.54
2022-06-25T02:57:00,mcc,46.40
2022-06-25T02:58:00,mcc,46.70
2022-06-25T02:59:00,mcc,48.05
2022-06-25T03:00:00,mcc,48.29
2022-06-25T03:01:00,mcc,48.18
2022-06-25T03:02:00,mcc,49.33
2022-06-25T03:03:00,mcc,48.64
2022-06-25T03:04:00,mcc,47.68
2022-06-25T03:05:00,mcc,46.58
2022-06-25T03:06:00,mcc,57.64
2022-06-25T03:07:00,mcc,58.71
2022-06-25T03:08:00,mcc,59.83
2022-06-25T03:09:00,mcc,50.06
2022-06-25T03:10:00,mcc,50.18
2022-06-25T03:11:00,mcc,49.17
2022-06-25T03:12:00,mcc,49.73
2022-06-25T03:13:00,mcc,51.94
2022-06-25T03:14:00,mcc,50.17
2022-06-25T03:15:00,mcc,50.05
2022-06-25T03:16:00,mcc,50.63
2022-06-25T03:17:00,mcc,48.94
2022-06-25T03:18:00,mcc,48.99
2022-06-25T03:19:00,mcc,49.04
2022-06-25T03:20:00,mcc,49.40
2022-06-25T03:21:00,mcc,48.66
2022-06-25T03:22:00,mcc,47.43
2022-06-25T03:23:00,mcc,46.33
2022-06-25T03:24:00,mcc,44.67
2022-06-25T03:25:00,mcc,44.80
2022-06-25T03:26:00,mcc,43.54
2022-06-25T03:27:00,mcc,42.17
2022-06-25T03:28:00,mcc,41.67
2022-06-25T03:29:00,mcc,42.78
2022-06-25T03:30:00,mcc,52.27
2022-06-25T03:31:00,mcc,43.88
2022-06-25T03:32:00,mcc,43.71
2022-06-25T03:33:00,mcc,44.64
2022-06-25T03:34:00,mcc,47.27
2022-06-25T03:35:00,mcc,47.95
2022-06-25T03:36:00,mcc,49.63
2022-06-25T03:37:00,mcc,49.15
2022-06-25T03:38:00,mcc,48.05
2022-06-25T03:39:00,mcc,46.98
2022-06-25T03:40:00,mcc,48.71
2022-06-25T03:41:00,mcc,47.01
2022-06-25T03:42:00,mcc,46.42
2022-06-25T03:43:00,mcc,48.95
2022-06-25T03:44:00,mcc,49.32
2022-06-25T03:45:00,mcc,51.75
2022-06-25T03:46:00,mcc,52.22
2022-06-25T03:47:00,mcc,49.28
2022-06-25T03:48:00,mcc,50.28
2022-06-25T03:49:00,mcc,57.31
2022-06-25T03:50:00,mcc,50.18
2022-06-25T03:51:00,mcc,49.28
2022-06-25T03:52:00,mcc,48.13
2022-06-25T03:53:00,mcc,46.10
2022-06-25T03:54:00,mcc,43.97
2022-06-25T03:55:00,mcc,55.94
2022-06-25T03:56:00,mcc,56.24
2022-06-25T03:57:00,mcc,45.09
2022-06-25T03:58:00,mcc,44.27
2022-06-25T03:59:00,mcc,43.68
2022-06-25T04:00:00,mcc,41.73
2022-06-25T04:01:00,mcc,43.83
2022-06-25T04:02:00,mcc,44.68
2022-06-25T04:03:00,mcc,46.21
2022-06-25T04:04:00,mcc,46.60
2022-06-25T04:05:00,mcc,61.30
2022-06-25T04:06:00,mcc,46.37
2022-06-25T04:07:00,mcc,43.89
2022-06-25T04:08:00,mcc,53.95
2022-06-25T04:09:00,mcc,45.52
2022-06-25T04:10:00,mcc,44.00
2022-06-25T04:11:00,mcc,45.00
2022-06-25T04:12:00,mcc,47.69
2022-06-25T04:13:00,mcc,46.61
2022-06-25T04:14:00,mcc,46.71
2022-06-25T04:15:00,mcc,51.47
2022-06-25T04:16:00,mcc,51.18
2022-06-25T04:17:00,mcc,53.45
2022-06-25T04:18:00,mcc,52.91
2022-06-25T04:19:00,mcc,45.69
2022-06-25T04:20:00,mcc,46.43
2022-06-25T04:21:00,mcc,46.08
2022-06-25T04:22:00,mcc,46.56
2022-06-25T04:23:00,mcc,47.78
2022-06-25T04:24:00,mcc,45.11
2022-06-25T04:25:00,mcc,46.05
2022-06-25T04:26:00,mcc,44.60
2022-06-25T04:27:00,mcc,51.05
2022-06-25T04:28:00,mcc,41.22
2022-06-25T04:29:00,mcc,41.20
2022-06-25T04:30:00,mcc,41.83
2022-06-25T04:31:00,mcc,43.18
2022-06-25T04:32:00,mcc,45.06
2022-06-25T04:33:00,mcc,44.97
2022-06-25T04:34:00,mcc,44.17
2022-06-25T04:35:00,mcc,45.58
2022-06-25T04:36:00,mcc,44.02
2022-06-25T04:37:00,mcc,43.94
2022-06-25T04:38:00,mcc,44.94
2022-06-25T04:39:00,mcc,43.61
2022-06-25T04:40:00,mcc,43.48
2022-06-25T04:41:00,mcc,43.95
2022-06-25T04:42:00,mcc,44.16
2022-06-25T04:43:00,mcc,44.21
2022-06-25T04:44:00,mcc,43.83
2022-06-25T04:45:00,mcc,46.40
2022-06-25T04:46:00,mcc,47.06
2022-06-25T04:47:00,mcc,46.81
2022-06-25T04:48:00,mcc,48.11
2022-06-25T04:49:00,mcc,47.52
2022-06-25T04:50:00,mcc,49.18
2022-06-25T04:51:00,mcc,47.83
2022-06-25T04:52:00,mcc,46.69
2022-06-25T04:53:00,mcc,46.83
2022-06-25T04:54:00,mcc,45.28
2022-06-25T04:55:00,mcc,43.97
2022-06-25T04:56:00,mcc,45.89
2022-06-25T04:57:00,mcc,44.76
2022-06-25T04:58:00,mcc,46.68
2022-06-25T04:59:00,mcc,48.52
2022-06-25T05:00:00,mcc,46.68
2022-06-25T05:01:00,mcc,47.12
2022-06-25T05:02:00,mcc,45.44
2022-06-25T05:03:00,mcc,43.82
2022-06-25T05:04:00,mcc,42.92
2022-06-25T05:05:00,mcc,43.65
2022-06-25T05:06:00,mcc,44.12
2022-06-25T05:07:00,mcc,44.36
2022-06-25T05:08:00,mcc,48.11
2022-06-25T05:09:00,mcc,48.51
2022-06-25T05:10:00,mcc,45.89
2022-06-25T05:11:00,mcc,57.05
2022-06-25T05:12:00,mcc,58.96
2022-06-25T05:13:00,mcc,46.41
2022-06-25T05:14:00,mcc,46.47
2022-06-25T05:15:00,mcc,42.66
2022-06-25T05:16:00,mcc,41.18
2022-06-25T05:17:00,mcc,40.55
2022-06-25T05:18:00,mcc,40.75
2022-06-25T05:19:00,mcc,42.81
2022-06-25T05:20:00,mcc,42.22
2022-06-25T05:21:00,mcc,42.99
2022-06-25T05:22:00,mcc,42.98
2022-06-25T05:23:00,mcc,43.01
2022-06-25T05:24:00,mcc,42.74
2022-06-25T05:25:00,mcc,44.02
2022-06-25T05:26:00,mcc,44.55
2022-06-25T05:27:00,mcc,44.61
2022-06-25T05:28:00,mcc,42.57
2022-06-25T05:29:00,mcc,43.22
2022-06-25T05:30:00,mcc,43.54
2022-06-25T05:31:00,mcc,43.41
2022-06-25T05:32:00,mcc,44.87
2022-06-25T05:33:00,mcc,45.72
2022-06-25T05:34:00,mcc,46.42
2022-06-25T05:35:00,mcc,47.34
2022-06-25T05:36:00,mcc,44.75
2022-06-25T05:37:00,mcc,45.08
2022-06-25T05:38:00,mcc,45.61
2022-06-25T05:39:00,mcc,45.20
2022-06-25T05:40:00,mcc,45.64
2022-06-25T05:41:00,mcc,46.74
2022-06-25T05:42:00,mcc,45.70
2022-06-25T05:43:00,mcc,44.60
2022-06-25T05:44:00,mcc,45.57
2022-06-25T05:45:00,mcc,45.67
2022-06-25T05:46:00,mcc,45.28
2022-06-25T05:47:00,mcc,44.59
2022-06-25T05:48:00,mcc,44.48
2022-06-25T05:49:00,mcc,43.22
2022-06-25T05:50:00,mcc,40.86
2022-06-25T05:51:00,mcc,40.37
2022-06-25T05:52:00,mcc,41.05
2022-06-25T05:53:00,mcc,40.97
2022-06-25T05:54:00,mcc,41.83
2022-06-25T05:55:00,mcc,42.44
2022-06-25T05:56:00,mcc,41.63
2022-06-25T05:57:00,mcc,41.78
2022-06-25T05:58:00,mcc,40.70
2022-06-25T05:59:00,mcc,41.21
2022-06-25T06:00:00,mcc,43.09
2022-06-25T06:01:00,mcc,42.05
2022-06-25T06:02:00,mcc,41.93
2022-06-25T06:03:00,mcc,41.85
2022-06-25T06:04:00,mcc,41.84
2022-06-25T06:05:00,mcc,41.78
2022-06-25T06:06:00,mcc,50.21
2022-06-25T06:07:00,mcc,41.32
2022-06-25T06:08:00,mcc,42.52
2022-06-25T06:09:00,mcc,42.78
2022-06-25T06:10:00,mcc,43.71
2022-06-25T06:11:00,mcc,45.83
2022-06-25T06:12:00,mcc,44.97
2022-06-25T06:13:00,mcc,46.48
2022-06-25T06:14:00,mcc,46.61
2022-06-25T06:15:00,mcc,46.63
2022-06-25T06:16:00,mcc,45.40
2022-06-25T06:17:00,mcc,46.98
2022-06-25T06:18:00,mcc,47.48
2022-06-25T06:19:00,mcc,46.02
2022-06-25T06:20:00,mcc,45.61
2022-06-25T06:21:00,mcc,45.78
2022-06-25T06:22:00,mcc,44.02
2022-06-25T06:23:00,mcc,55.70
2022-06-25T06:24:00,mcc,63.18
2022-06-25T06:25:00,mcc,43.62
2022-06-25T06:26:00,mcc,44.29
2022-06-25T06:27:00,mcc,43.51
2022-06-25T06:28:00,mcc,42.44
2022-06-25T06:29:00,mcc,42.57
2022-06-25T06:30:00,mcc,44.02
2022-06-25T06:31:00,mcc,43.27
2022-06-25T06:32:00,mcc,42.64
2022-06-25T06:33:00,mcc,41.90
2022-06-25T06:34:00,mcc,43.63
2022-06-25T06:35:00,mcc,42.73
2022-06-25T06:36:00,mcc,43.93
2022-06-25T06:37:00,mcc,46.22
2022-06-25T06:38:00,mcc,45.88
2022-06-25T06:39:00,mcc,45.89
2022-06-25T06:40:00,mcc,47.55
2022-06-25T06:41:00,mcc,45.33
2022-06-25T06:42:00,mcc,46.42
2022-06-25T06:43:00,mcc,46.03
2022-06-25T06:44:00,mcc,47.77
2022-06-25T06:45:00,mcc,45.20
2022-06-25T06:46:00,mcc,44.89
2022-06-25T06:47:00,mcc,45.34
2022-06-25T06:48:00,mcc,46.04
2022-06-25T06:49:00,mcc,44.55
2022-06-25T06:50:00,mcc,50.81
2022-06-25T06:51:00,mcc,44.47
2022-06-25T06:52:00,mcc,44.36
2022-06-25T06:53:00,mcc,42.92
2022-06-25T06:54:00,mcc,42.26
2022-06-25T06:55:00,mcc,42.71
2022-06-25T06:56:00,mcc,43.04
2022-06-25T06:57:00,mcc,42.34
2022-06-25T06:58:00,mcc,41.90
2022-06-25T06:59:00,mcc,41.95
2022-06-25T07:00:00,mcc,40.62
2022-06-25T07:01:00,mcc,40.47
2022-06-25T07:02:00,mcc,42.25
2022-06-25T07:03:00,mcc,51.37
2022-06-25T07:04:00,mcc,44.86
2022-06-25T07:05:00,mcc,43.96
2022-06-25T07:06:00,mcc,44.42
2022-06-25T07:07:00,mcc,43.57
2022-06-25T07:08:00,mcc,43.97
2022-06-25T07:09:00,mcc,42.26
2022-06-25T07:10:00,mcc,44.19
2022-06-25T07:11:00,mcc,44.90
2022-06-25T07:12:00,mcc,43.08
2022-06-25T07:13:00,mcc,42.70
2022-06-25T07:14:00,mcc,42.07
2022-06-25T07:15:00,mcc,51.34
2022-06-25T07:16:00,mcc,43.11
2022-06-25T07:17:00,mcc,42.95
2022-06-25T07:18:00,mcc,41.12
2022-06-25T07:19:00,mcc,41.05
2022-06-25T07:20:00,mcc,41.81
2022-06-25T07:21:00,mcc,41.68
2022-06-25T07:22:00,mcc,40.75
2022-06-25T07:23:00,mcc,49.78
2022-06-25T07:24:00,mcc,52.45
2022-06-25T07:25:00,mcc,52.14
2022-06-25T07:26:00,mcc,54.41
2022-06-25T07:27:00,mcc,43.84
2022-06-25T07:28:00,mcc,42.77
2022-06-25T07:29:00,mcc,41.05
2022-06-25T07:30:00,mcc,44.31
2022-06-25T07:31:00,mcc,44.82
2022-06-25T07:32:00,mcc,44.59
2022-06-25T07:33:00,mcc,43.82
2022-06-25T07:34:00,mcc,42.11
2022-06-25T07:35:00,mcc,54.14
2022-06-25T07:36:00,mcc,53.95
2022-06-25T07:37:00,mcc,44.64
2022-06-25T07:38:00,mcc,43.18
2022-06-25T07:39:00,mcc,46.35
2022-06-25T07:40:00,mcc,45.62
2022-06-25T07:41:00,mcc,44.60
2022-06-25T07:42:00,mcc,53.03
2022-06-25T07:43:00,mcc,44.31
2022-06-25T07:44:00,mcc,44.72
2022-06-25T07:45:00,mcc,44.02
2022-06-25T07:46:00,mcc,43.04
2022-06-25T07:47:00,mcc,44.08
2022-06-25T07:48:00,mcc,41.09
2022-06-25T07:49:00,mcc,41.14
2022-06-25T07:50:00,mcc,41.62
2022-06-25T07:51:00,mcc,43.61
2022-06-25T07:52:00,mcc,43.74
2022-06-25T07:53:00,mcc,42.84
2022-06-25T07:54:00,mcc,44.28
2022-06-25T07:55:00,mcc,42.86
2022-06-25T07:56:00,mcc,43.93
2022-06-25T07:57:00,mcc,42.13
2022-06-25T07:58:00,mcc,42.72
2022-06-25T07:59:00,mcc,43.59
2022-06-25T08:00:00,mcc,43.20
2022-06-25T08:01:00,mcc,38.59
2022-06-25T08:02:00,mcc,46.64
2022-06-25T08:03:00,mcc,39.04
2022-06-25T08:04:00,mcc,40.60
2022-06-25T08:05:00,mcc,40.06
2022-06-25T08:06:00,mcc,43.77
2022-06-25T08:07:00,mcc,42.16
2022-06-25T08:08:00,mcc,40.71
2022-06-25T08:09:00,mcc,44.29
2022-06-25T08:10:00,mcc,44.17
2022-06-25T08:11:00,mcc,44.44
2022-06-25T08:12:00,mcc,44.73
2022-06-25T08:13:00,mcc,46.53
2022-06-25T08:14:00,mcc,47.31
2022-06-25T08:15:00,mcc,46.79
2022-06-25T08:16:00,mcc,46.70
2022-06-25T08:17:00,mcc,46.00
2022-06-25T08:18:00,mcc,43.04
2022-06-25T08:19:00,mcc,42.48
2022-06-25T08:20:00,mcc,42.59
2022-06-25T08:21:00,mcc,50.17
2022-06-25T08:22:00,mcc,41.24
2022-06-25T08:23:00,mcc,43.41
2022-06-25T08:24:00,mcc,45.37
2022-06-25T08:25:00,mcc,44.78
2022-06-25T08:26:00,mcc,46.05
2022-06-25T08:27:00,mcc,47.74
2022-06-25T08:28:00,mcc,46.49
2022-06-25T08:29:00,mcc,45.02
2022-06-25T08:30:00,mcc,44.40
2022-06-25T08:31:00,mcc,43.87
2022-06-25T08:32:00,mcc,45.13
2022-06-25T08:33:00,mcc,45.40
2022-06-25T08:34:00,mcc,45.01
2022-06-25T08:35:00,mcc,43.80
2022-06-25T08:36:00,mcc,44.16
2022-06-25T08:37:00,mcc,42.84
2022-06-25T08:38:00,mcc,42.67
2022-06-25T08:39:00,mcc,43.32
2022-06-25T08:40:00,mcc,54.14
2022-06-25T08:41:00,mcc,44.86
2022-06-25T08:42:00,mcc,46.20
2022-06-25T08:43:00,mcc,45.96
2022-06-25T08:44:00,mcc,46.52
2022-06-25T08:45:00,mcc,46.72
2022-06-25T08:46:00,mcc,47.08
2022-06-25T08:47:00,mcc,59.99
2022-06-25T08:48:00,mcc,45.61
2022-06-25T08:49:00,mcc,45.04
2022-06-25T08:50:00,mcc,43.69
2022-06-25T08:51:00,mcc,43.17
2022-06-25T08:52:00,mcc,42.09
2022-06-25T08:53:00,mcc,42.47
2022-06-25T08:54:00,mcc,43.71
2022-06-25T08:55:00,mcc,44.55
2022-06-25T08:56:00,mcc,43.25
2022-06-25T08:57:00,mcc,42.51
2022-06-25T08:58:00,mcc,42.20
2022-06-25T08:59:00,mcc,40.13
2022-06-25T09:00:00,mcc,50.53
2022-06-25T09:01:00,mcc,42.92
2022-06-25T09:02:00,mcc,43.07
2022-06-25T09:03:00,mcc,42.80
2022-06-25T09:04:00,mcc,42.55
2022-06-25T09:05:00,mcc,48.55
2022-06-25T09:06:00,mcc,50.00
2022-06-25T09:07:00,mcc,51.42
2022-06-25T09:08:00,mcc,50.50
2022-06-25T09:09:00,mcc,46.32
2022-06-25T09:10:00,mcc,45.54
2022-06-25T09:11:00,mcc,44.78
2022-06-25T09:12:00,mcc,45.72
2022-06-25T09:13:00,mcc,44.66
2022-06-25T09:14:00,mcc,44.25
2022-06-25T09:15:00,mcc,44.32
2022-06-25T09:16:00,mcc,44.43
2022-06-25T09:17:00,mcc,43.14
2022-06-25T09:18:00,mcc,44.93
2022-06-25T09:19:00,mcc,52.98
2022-06-25T09:20:00,mcc,44.29
2022-06-25T09:21:00,mcc,44.47
2022-06-25T09:22:00,mcc,43.47
2022-06-25T09:23:00,mcc,44.99
2022-06-25T09:24:00,mcc,42.00
2022-06-25T09:25:00,mcc,40.76
2022-06-25T09:26:00,mcc,40.14
2022-06-25T09:27:00,mcc,41.76
2022-06-25T09:28:00,mcc,41.28
2022-06-25T09:29:00,mcc,43.28
2022-06-25T09:30:00,mcc,44.20
2022-06-25T09:31:00,mcc,42.85
2022-06-25T09:32:00,mcc,44.67
2022-06-25T09:33:00,mcc,44.74
2022-06-25T09:34:00,mcc,42.37
2022-06-25T09:35:00,mcc,42.99
2022-06-25T09:36:00,mcc,44.63
2022-06-25T09:37:00,mcc,46.25
2022-06-25T09:38:00,mcc,46.34
2022-06-25T09:39:00,mcc,55.23
2022-06-25T09:40:00,mcc,49.41
2022-06-25T09:41:00,mcc,48.98
2022-06-25T09:42:00,mcc,46.95
2022-06-25T09:43:00,mcc,45.90
2022-06-25T09:44:00,mcc,44.86
2022-06-25T09:45:00,mcc,43.22
2022-06-25T09:46:00,mcc,44.51
2022-06-25T09:47:00,mcc,42.68
2022-06-25T09:48:00,mcc,43.27
2022-06-25T09:49:00,mcc,43.41
2022-06-25T09:50:00,mcc,43.89
2022-06-25T09:51:00,mcc,42.17
2022-06-25T09:52:00,mcc,41.35
2022-06-25T09:53:00,mcc,41.29
2022-06-25T09:54:00,mcc,42.93
2022-06-25T09:55:00,mcc,39.96
2022-06-25T09:56:00,mcc,40.63
2022-06-25T09:57:00,mcc,40.04
2022-06-25T09:58:00,mcc,52.03
2022-06-25T09:59:00,mcc,51.88
2022-06-25T10:00:00,mcc,41.87
2022-06-25T10:01:00,mcc,42.29
2022-06-25T10:02:00,mcc,45.01
2022-06-25T10:03:00,mcc,45.95
2022-06-25T10:04:00,mcc,45.90
2022-06-25T10:05:00,mcc,46.59
2022-06-25T10:06:00,mcc,46.20
2022-06-25T10:07:00,mcc,45.25
2022-06-25T10:08:00,mcc,44.86
2022-06-25T10:09:00,mcc,44.65
2022-06-25T10:10:00,mcc,45.40
2022-06-25T10:11:00,mcc,45.34
2022-06-25T10:12:00,mcc,45.36
2022-06-25T10:13:00,mcc,44.60
2022-06-25T10:14:00,mcc,45.19
2022-06-25T10:15:00,mcc,44.12
2022-06-25T10:16:00,mcc,44.72
2022-06-25T10:17:00,mcc,52.29
2022-06-25T10:18:00,mcc,45.05
2022-06-25T10:19:00,mcc,45.31
2022-06-25T10:20:00,mcc,42.90
2022-06-25T10:21:00,mcc,41.06
2022-06-25T10:22:00,mcc,42.75
2022-06-25T10:23:00,mcc,42.37
2022-06-25T10:24:00,mcc,42.06
2022-06-25T10:25:00,mcc,43.12
2022-06-25T10:26:00,mcc,43.86
2022-06-25T10:27:00,mcc,42.90
2022-06-25T10:28:00,mcc,44.53
2022-06-25T10:29:00,mcc,44.16
2022-06-25T10:30:00,mcc,43.61
2022-06-25T10:31:00,mcc,43.24
2022-06-25T10:32:00,mcc,43.34
2022-06-25T10:33:00,mcc,43.74
2022-06-25T10:34:00,mcc,42.67
2022-06-25T10:35:00,mcc,42.97
2022-06-25T10:36:00,mcc,44.32
2022-06-25T10:37:00,mcc,44.72
2022-06-25T10:38:00,mcc,46.20
2022-06-25T10:39:00,mcc,46.09
2022-06-25T10:40:00,mcc,45.20
2022-06-25T10:41:00,mcc,45.38
2022-06-25T10:42:00,mcc,45.36
2022-06-25T10:43:00,mcc,45.77
2022-06-25T10:44:00,mcc,45.41
2022-06-25T10:45:00,mcc,47.48
2022-06-25T10:46:00,mcc,45.62
2022-06-25T10:47:00,mcc,44.60
2022-06-25T10:48:00,mcc,45.00
2022-06-25T10:49:00,mcc,48.93
2022-06-25T10:50:00,mcc,48.95
2022-06-25T10:51:00,mcc,47.87
2022-06-25T10:52:00,mcc,46.07
2022-06-25T10:53:00,mcc,44.42
2022-06-25T10:54:00,mcc,44.35
2022-06-25T10:55:00,mcc,45.86
2022-06-25T10:56:00,mcc,44.44
2022-06-25T10:57:00,mcc,45.05
2022-06-25T10:58:00,mcc,45.69
2022-06-25T10:59:00,mcc,46.83
2022-06-25T11:00:00,mcc,47.63
2022-06-25T11:01:00,mcc,56.54
2022-06-25T11:02:00,mcc,47.80
2022-06-25T11:03:00,mcc,46.00
2022-06-25T11:04:00,mcc,45.15
2022-06-25T11:05:00,mcc,45.18
2022-06-25T11:06:00,mcc,45.96
2022-06-25T11:07:00,mcc,44.79
2022-06-25T11:08:00,mcc,46.46
2022-06-25T11:09:00,mcc,45.31
2022-06-25T11:10:00,mcc,44.09
2022-06-25T11:11:00,mcc,56.46
2022-06-25T11:12:00,mcc,43.53
2022-06-25T11:13:00,mcc,45.49
2022-06-25T11:14:00,mcc,54.78
2022-06-25T11:15:00,mcc,45.37
2022-06-25T11:16:00,mcc,44.94
2022-06-25T11:17:00,mcc,44.02
2022-06-25T11:18:00,mcc,44.70
2022-06-25T11:19:00,mcc,44.06
2022-06-25T11:20:00,mcc,44.03
2022-06-25T11:21:00,mcc,42.98
2022-06-25T11:22:00,mcc,45.09
2022-06-25T11:23:00,mcc,44.33
2022-06-25T11:24:00,mcc,43.72
2022-06-25T11:25:00,mcc,42.77
2022-06-25T11:26:00,mcc,41.75
2022-06-25T11:27:00,mcc,41.27
2022-06-25T11:28:00,mcc,39.48
2022-06-25T11:29:00,mcc,41.81
2022-06-25T11:30:00,mcc,41.96
2022-06-25T11:31:00,mcc,41.97
2022-06-25T11:32:00,mcc,41.17
2022-06-25T11:33:00,mcc,50.21
2022-06-25T11:34:00,mcc,42.13
2022-06-25T11:35:00,mcc,42.97
2022-06-25T11:36:00,mcc,44.33
2022-06-25T11:37:00,mcc,44.81
2022-06-25T11:38:00,mcc,44.61
2022-06-25T11:39:00,mcc,44.97
2022-06-25T11:40:00,mcc,43.48
2022-06-25T11:41:00,mcc,41.70
2022-06-25T11:42:00,mcc,41.52
2022-06-25T11:43:00,mcc,41.95
2022-06-25T11:44:00,mcc,44.70
2022-06-25T11:45:00,mcc,45.37
2022-06-25T11:46:00,mcc,47.13
2022-06-25T11:47:00,mcc,48.99
2022-06-25T11:48:00,mcc,47.14
2022-06-25T11:49:00,mcc,47.42
2022-06-25T11:50:00,mcc,48.62
2022-06-25T11:51:00,mcc,51.67
2022-06-25T11:52:00,mcc,50.73
2022-06-25T11:53:00,mcc,61.77
2022-06-25T11:54:00,mcc,61.82
2022-06-25T11:55:00,mcc,59.09
2022-06-25T11:56:00,mcc,47.36
2022-06-25T11:57:00,mcc,46.89
2022-06-25T11:58:00,mcc,49.65
2022-06-25T11:59:00,mcc,48.70
2022-06-25T12:00:00,mcc,47.70
2022-06-25T12:01:00,mcc,47.25
2022-06-25T12:02:00,mcc,51.89
2022-06-25T12:03:00,mcc,51.77
2022-06-25T12:04:00,mcc,51.69
2022-06-25T12:05:00,mcc,52.18
2022-06-25T12:06:00,mcc,52.37
2022-06-25T12:07:00,mcc,51.92
2022-06-25T12:08:00,mcc,53.20
2022-06-25T12:09:00,mcc,61.43
2022-06-25T12:10:00,mcc,50.73
2022-06-25T12:11:00,mcc,59.18
2022-06-25T12:12:00,mcc,51.52
2022-06-25T12:13:00,mcc,50.37
2022-06-25T12:14:00,mcc,49.77
2022-06-25T12:15:00,mcc,50.20
2022-06-25T12:16:00,mcc,52.47
2022-06-25T12:17:00,mcc,54.14
2022-06-25T12:18:00,mcc,55.30
2022-06-25T12:19:00,mcc,54.71
2022-06-25T12:20:00,mcc,55.17
2022-06-25T12:21:00,mcc,68.55
2022-06-25T12:22:00,mcc,67.89
2022-06-25T12:23:00,mcc,55.77
2022-06-25T12:24:00,mcc,56.70
2022-06-25T12:25:00,mcc,58.07
2022-06-25T12:26:00,mcc,57.65
2022-06-25T12:27:00,mcc,55.78
2022-06-25T12:28:00,mcc,52.14
2022-06-25T12:29:00,mcc,52.23
2022-06-25T12:30:00,mcc,51.19
2022-06-25T12:31:00,mcc,52.94
2022-06-25T12:32:00,mcc,53.47
2022-06-25T12:33:00,mcc,53.99
2022-06-25T12:34:00,mcc,53.52
2022-06-25T12:35:00,mcc,54.25
2022-06-25T12:36:00,mcc,52.44
2022-06-25T12:37:00,mcc,51.94
2022-06-25T12:38:00,mcc,53.34
2022-06-25T12:39:00,mcc,53.50
2022-06-25T12:40:00,mcc,52.87
2022-06-25T12:41:00,mcc,50.91
2022-06-25T12:42:00,mcc,52.15
2022-06-25T12:43:00,mcc,51.19
2022-06-25T12:44:00,mcc,53.58
2022-06-25T12:45:00,mcc,53.12
2022-06-25T12:46:00,mcc,53.86
2022-06-25T12:47:00,mcc,57.70
2022-06-25T12:48:00,mcc,59.04
2022-06-25T12:49:00,mcc,65.87
2022-06-25T12:50:00,mcc,55.19
2022-06-25T12:51:00,mcc,55.41
2022-06-25T12:52:00,mcc,56.19
2022-06-25T12:53:00,mcc,56.90
2022-06-25T12:54:00,mcc,56.66
2022-06-25T12:55:00,mcc,56.72
2022-06-25T12:56:00,mcc,54.55
2022-06-25T12:57:00,mcc,55.30
2022-06-25T12:58:00,mcc,53.88
2022-06-25T12:59:00,mcc,52.42
2022-06-25T13:00:00,mcc,52.90
2022-06-25T13:01:00,mcc,52.51
2022-06-25T13:02:00,mcc,51.54
2022-06-25T13:03:00,mcc,50.56
2022-06-25T13:04:00,mcc,49.85
2022-06-25T13:05:00,mcc,50.41
2022-06-25T13:06:00,mcc,52.80
2022-06-25T13:07:00,mcc,52.34
2022-06-25T13:08:00,mcc,52.46
2022-06-25T13:09:00,mcc,51.70
2022-06-25T13:10:00,mcc,51.76
2022-06-25T13:11:00,mcc,53.59
2022-06-25T13:12:00,mcc,52.34
2022-06-25T13:13:00,mcc,54.25
2022-06-25T13:14:00,mcc,52.96
2022-06-25T13:15:00,mcc,52.15
2022-06-25T13:16:00,mcc,51.41
2022-06-25T13:17:00,mcc,51.47
2022-06-25T13:18:00,mcc,51.84